CW0230 Weather Reports


Display with metric or nautical units.
time (UTC)temp
F
wind
direction
speed
MPH
gust
MPH
rain 1hr
in
rain 24hr
in
rain mn
in
humidity
%
barometer
mb
20260906114517 79 148 5.0 13.0 0.00 0.00 0.00 52 1019.8
20260906114018 78 154 6.0 13.0 0.00 0.00 0.00 51 1019.9
20260906113517 78 150 8.0 12.0 0.00 0.00 0.00 50 1020.0
20260906113018 78 189 6.0 14.0 0.00 0.00 0.00 51 1020.1
20260906112017 78 177 6.0 14.0 0.00 0.00 0.00 49 1020.1
20260906110517 77 189 4.0 10.0 0.00 0.00 0.00 52 1020.2
20260906105017 77 188 7.0 12.0 0.00 0.00 0.00 55 1020.3
20260906104518 77 177 6.0 10.0 0.00 0.00 0.00 57 1020.3
20260906102518 75 192 5.0 12.0 0.00 0.00 0.00 60 1020.5
20260906101517 75 139 5.0 14.0 0.00 0.00 0.00 62 1020.6
20260906101017 74 185 7.0 14.0 0.00 0.00 0.00 62 1020.6
20260906095518 73 159 6.0 13.0 0.00 0.00 0.00 67 1020.7
20260906095017 73 182 6.0 13.0 0.00 0.00 0.00 67 1020.8
20260906094518 73 152 7.0 14.0 0.00 0.00 0.00 68 1020.9
20260906093018 72 152 7.0 14.0 0.00 0.00 0.00 69 1020.9
20260906092518 72 151 9.0 14.0 0.00 0.00 0.00 68 1021.1
20260906091017 71 158 7.0 13.0 0.00 0.00 0.00 70 1021.0
20260906090518 71 154 6.0 13.0 0.00 0.00 0.00 71 1020.9
20260906090017 71 156 5.0 10.0 0.00 0.00 0.00 72 1021.0
20260906085017 70 142 7.0 12.0 0.00 0.00 0.00 74 1021.0
20260906084517 70 165 5.0 12.0 0.00 0.00 0.00 75 1021.1
20260906084018 69 155 5.0 14.0 0.00 0.00 0.00 76 1021.1
20260906083518 69 164 8.0 14.0 0.00 0.00 0.00 76 1021.0
20260906083018 68 139 4.0 9.0 0.00 0.00 0.00 78 1021.0
20260906082518 68 150 4.0 13.0 0.00 0.00 0.00 80 1021.1
20260906082017 67 115 5.0 13.0 0.00 0.00 0.00 80 1021.2
20260906080018 65 148 5.0 13.0 0.00 0.00 0.00 84 1021.1
20260906075518 64 142 6.0 13.0 0.00 0.00 0.00 84 1021.1
20260906074518 63 159 4.0 13.0 0.00 0.00 0.00 86 1021.1
20260906072518 61 119 3.0 8.0 0.00 0.00 0.00 89 1021.0
20260906072017 60 155 3.0 6.0 0.00 0.00 0.00 89 1021.2
20260906071518 60 146 3.0 6.0 0.00 0.00 0.00 89 1021.2
20260906070517 59 150 4.0 7.0 0.00 0.00 0.00 90 1021.3
20260906070018 59 144 3.0 5.0 0.00 0.00 0.00 90 1021.4
20260906065519 58 148 3.0 7.0 0.00 0.00 0.00 90 1021.5
20260906065017 58 157 3.0 7.0 0.00 0.00 0.00 91 1021.5
20260906063517 57 170 3.0 6.0 0.00 0.00 0.00 91 1021.5
20260906062017 57 150 2.0 3.0 0.00 0.00 0.00 91 1021.5
20260906061018 57 151 2.0 3.0 0.00 0.00 0.00 91 1021.6
20260906055517 57 131 1.0 3.0 0.00 0.00 0.00 91 1021.7
20260906053517 57 152 1.0 3.0 0.00 0.00 0.00 91 1022.0
20260906052518 57 177 1.0 3.0 0.00 0.00 0.00 91 1022.1
20260906051518 57 140 1.0 3.0 0.00 0.00 0.00 91 1022.1
20260906051017 57 140 1.0 3.0 0.00 0.00 0.00 91 1022.1
20260906050517 57 140 0.0 2.0 0.00 0.00 0.00 91 1022.1
20260906050018 57 142 1.0 3.0 0.00 0.00 0.00 91 1022.2
20260906045518 57 142 1.0 3.0 0.00 0.00 0.00 91 1022.3
20260906045018 57 148 1.0 2.0 0.00 0.00 0.00 91 1022.3
20260906044518 57 134 1.0 2.0 0.00 0.00 0.00 91 1022.4
20260906044018 57 134 0.0 2.0 0.00 0.00 0.00 91 1022.4
20260906042518 58 154 1.0 3.0 0.00 0.00 0.00 90 1022.5
20260906041517 58 140 1.0 3.0 0.00 0.00 0.00 90 1022.8
20260906041017 58 141 1.0 3.0 0.00 0.00 0.00 90 1022.7
20260906040517 58 143 1.0 3.0 0.00 0.00 0.00 90 1022.7
20260906040018 58 143 1.0 2.0 0.00 0.00 0.00 90 1022.8
20260906035518 58 143 0.0 2.0 0.00 0.00 0.00 90 1022.9
20260906034018 58 143 1.0 2.0 0.00 0.00 0.00 89 1023.1
20260906033018 58 143 2.0 3.0 0.00 0.00 0.00 89 1023.3
20260906030518 58 130 0.0 2.0 0.00 0.00 0.00 89 1023.6
20260906025518 58 130 1.0 2.0 0.00 0.00 0.00 89 1023.6
20260906024518 58 131 1.0 3.0 0.00 0.00 0.00 89 1023.7
20260906023017 58 159 0.0 1.0 0.00 0.00 0.00 88 1023.7
20260906021518 58 159 0.0 1.0 0.00 0.00 0.00 88 1024.0
20260906015018 58 159 1.0 2.0 0.00 0.00 0.00 88 1024.0
20260906014018 58 159 0.0 1.0 0.00 0.00 0.00 88 1024.1
20260906013518 58 159 0.0 1.0 0.00 0.00 0.00 88 1024.0
20260906013018 59 159 0.0 1.0 0.00 0.00 0.00 88 1024.0
20260906011018 59 159 0.0 1.0 0.00 0.00 0.00 88 1024.2
20260906010018 58 159 0.0 0.0 0.00 0.00 0.00 88 1024.5
20260906005517 58 159 0.0 0.0 0.00 0.00 0.00 88 1024.5
20260906001017 58 159 0.0 1.0 0.00 0.00 0.00 88 1024.9
20260906000018 58 159 0.0 1.0 0.00 0.00 0.00 88 1025.0
20260905235518 58 159 0.0 1.0 0.00 0.00 0.00 88 1025.2
20260905232517 58 159 0.0 1.0 0.00 0.00 0.00 87 1025.4
20260905230017 58 159 0.0 3.0 0.00 0.00 0.00 86 1025.4
20260905225518 58 159 0.0 3.0 0.00 0.00 0.00 86 1025.5
20260905223018 59 159 0.0 0.0 0.00 0.00 0.00 85 1025.4
20260905222517 59 159 0.0 1.0 0.00 0.00 0.00 85 1025.3
20260905222017 59 159 0.0 1.0 0.00 0.00 0.00 85 1025.3
20260905221517 59 159 0.0 0.0 0.00 0.00 0.00 85 1025.3
20260905221017 59 159 0.0 0.0 0.00 0.00 0.00 84 1025.3
20260905220017 59 159 0.0 2.0 0.00 0.00 0.00 84 1025.4
20260905215018 59 159 0.0 0.0 0.00 0.00 0.00 83 1025.3
20260905213518 60 159 0.0 0.0 0.00 0.00 0.00 82 1025.5
20260905211517 60 159 0.0 1.0 0.00 0.00 0.00 81 1025.5
20260905210517 60 159 0.0 2.0 0.00 0.00 0.00 81 1025.4
20260905202517 61 282 0.0 0.0 0.00 0.00 0.00 77 1025.2
20260905202017 61 282 0.0 0.0 0.00 0.00 0.00 76 1025.2
20260905201017 61 282 0.0 0.0 0.00 0.00 0.00 75 1025.4
20260905200018 62 282 0.0 0.0 0.00 0.00 0.00 73 1025.4
20260905192517 63 282 1.0 2.0 0.00 0.00 0.00 72 1025.3
20260905192017 63 277 0.0 2.0 0.00 0.00 0.00 72 1025.1
20260905191517 63 277 0.0 2.0 0.00 0.00 0.00 71 1025.1
20260905191018 64 277 1.0 2.0 0.00 0.00 0.00 71 1025.0
20260905190017 64 255 1.0 3.0 0.00 0.00 0.00 72 1025.1
20260905185018 64 225 2.0 7.0 0.00 0.00 0.00 73 1025.2
20260905183518 65 216 3.0 8.0 0.00 0.00 0.00 72 1025.1
20260905182517 65 194 2.0 5.0 0.00 0.00 0.00 71 1025.1
20260905181017 66 192 2.0 7.0 0.00 0.00 0.00 69 1025.0
20260905174518 67 201 3.0 6.0 0.00 0.00 0.00 66 1025.0
20260905173017 68 194 4.0 9.0 0.00 0.00 0.00 64 1025.0
20260905172518 68 213 4.0 8.0 0.00 0.00 0.00 64 1024.9
20260905171018 69 202 3.0 9.0 0.00 0.00 0.00 62 1024.8
20260905170518 69 214 4.0 9.0 0.00 0.00 0.00 62 1024.8
20260905170017 69 210 3.0 7.0 0.00 0.00 0.00 62 1024.8
20260905165517 69 188 4.0 7.0 0.00 0.00 0.00 61 1024.7
20260905164518 70 201 2.0 8.0 0.00 0.00 0.00 60 1024.5
20260905163018 70 233 5.0 8.0 0.00 0.00 0.00 59 1024.5
20260905161018 70 5 2.0 6.0 0.00 0.00 0.00 60 1024.6
20260905155017 71 202 3.0 6.0 0.00 0.00 0.00 58 1024.6
20260905153517 71 326 5.0 8.0 0.00 0.00 0.00 57 1024.6
20260905153018 71 331 3.0 8.0 0.00 0.00 0.00 56 1024.6
20260905152517 72 271 4.0 7.0 0.00 0.00 0.00 56 1024.6
20260905151517 72 298 3.0 8.0 0.00 0.00 0.00 56 1024.7
20260905145518 72 306 5.0 8.0 0.00 0.00 0.00 56 1024.9
20260905145017 72 278 4.0 7.0 0.00 0.00 0.00 55 1024.9
20260905144017 72 269 1.0 8.0 0.00 0.00 0.00 55 1024.9
20260905141518 72 192 4.0 8.0 0.00 0.00 0.00 55 1025.1
20260905141018 72 228 1.0 7.0 0.00 0.00 0.00 55 1025.1
20260905135517 73 281 3.0 7.0 0.00 0.00 0.00 54 1025.3
20260905135017 73 317 4.0 7.0 0.00 0.00 0.00 55 1025.3
20260905134518 72 330 3.0 7.0 0.00 0.00 0.00 55 1025.3
20260905134017 73 212 4.0 7.0 0.00 0.00 0.00 54 1025.3
20260905133018 72 327 1.0 8.0 0.00 0.00 0.00 55 1025.3
20260905130517 72 320 2.0 7.0 0.00 0.00 0.00 56 1025.3
20260905123518 70 336 4.0 7.0 0.00 0.00 0.00 58 1025.2
20260905123018 70 327 4.0 7.0 0.00 0.00 0.00 59 1025.2
20260905120518 69 303 3.0 8.0 0.00 0.00 0.00 62 1025.3